This demonstration page uses our WeatherBlox Daily Observations layout. Learn more.

Left ArrowRight Arrow

Hourly Observations for May 8, 2022

Temp ( °F °C ) Dew Point ( °F °C ) Humidity (%) Winds ( mph kmh ) Pressure ( in mb ) Visibility ( mi km ) Precip ( " mm )
12:52 am 00:52 Clear 63 17.2 50 10 63 63 SSE 17 28 29.72 1006 10 16 0.00 0.00
1:52 am 01:52 Clear 62 16.7 52 11.1 70 70 SSE 20 31 29.71 1006 10 16 0.00 0.00
2:52 am 02:52 Clear 60 15.6 52 11.1 75 75 SSE 21 33 29.72 1006 10 16 0.00 0.00
3:52 am 03:52 Clear 60 15.6 51 10.6 72 72 SSE 18 30 29.73 1007 10 16 0.00 0.00
4:52 am 04:52 Clear 59 15 50 10 72 72 SSE 20 31 29.74 1007 10 16 0.00 0.00
5:52 am 05:52 Clear 58 14.4 51 10.6 78 78 SSE 17 28 29.74 1007 10 16 0.00 0.00
6:52 am 06:52 Sunny 59 15 51 10.6 75 75 SSE 24 39 29.72 1006 10 16 0.00 0.00
7:52 am 07:52 Sunny 60 15.6 51 10.6 72 72 SSE 29 46 29.72 1006 10 16 0.00 0.00
8:52 am 08:52 Sunny 63 17.2 51 10.6 65 65 SSE 24 39 29.70 1006 10 16 0.00 0.00
9:47 am 09:47 Mostly Cloudy 64 18 50 10 60 60 SSE 29 46 29.68 1005 10 16 0.00 0.00
9:52 am 09:52 Mostly Cloudy 65 18.3 51 10.6 61 61 SE 28 44 29.69 1005 10 16 0.00 0.00
10:00 am 10:00 Partly Cloudy 65 18.3 51 10.6 61 61 SE 28 44 29.69 1005 10 16 0.00 0.00
10:52 am 10:52 Mostly Sunny 67 19.4 53 11.7 61 61 SSE 31 50 29.69 1006 10 16 0.00 0.00
11:52 am 11:52 Sunny 69 20.6 55 12.8 61 61 SSE 24 39 29.68 1005 10 16 0.00 0.00
12:52 pm 12:52 Mostly Sunny 72 22.2 57 13.9 59 59 SSE 21 33 29.70 1006 10 16 0.00 0.00
1:52 pm 13:52 Sunny 72 22.2 57 13.9 59 59 SSE 23 37 29.65 1004 10 16 0.00 0.00
2:52 pm 14:52 Sunny 74 23.3 59 15 60 60 SSE 17 28 29.65 1004 10 16 0.00 0.00
3:52 pm 15:52 Sunny 76 24.4 60 15.6 58 58 SSE 20 31 29.63 1003 10 16 0.00 0.00
4:52 pm 16:52 Sunny 77 25 61 16.1 58 58 SSE 18 30 29.62 1003 10 16 0.00 0.00
5:52 pm 17:52 Sunny 77 25 62 16.7 60 60 SE 18 30 29.62 1003 10 16 0.00 0.00
6:52 pm 18:52 Sunny 75 23.9 62 16.7 64 64 SE 15 24 29.62 1003 10 16 0.00 0.00
7:52 pm 19:52 Sunny 73 22.8 61 16.1 66 66 SE 16 26 29.64 1004 10 16 0.00 0.00
8:52 pm 20:52 Mostly Cloudy 70 21.1 61 16.1 73 73 SE 13 20 29.66 1004 10 16 0.00 0.00
9:52 pm 21:52 Mostly Clear 69 20.6 60 15.6 73 73 SE 14 22 29.67 1005 10 16 0.00 0.00
10:47 pm 22:47 Mostly Cloudy 70 21 61 16 73 73 SE 16 26 29.67 1005 10 16 0.00 0.00
10:52 pm 22:52 Mostly Cloudy 69 20.6 61 16.1 76 76 SE 16 26 29.67 1005 10 16 0.00 0.00
11:52 pm 23:52 Cloudy 69 20.6 61 16.1 76 76 SSE 20 31 29.66 1004 10 16 0.00 0.00

Powered by AerisWeather